Location: Glasgow
(55.8642°N, 4.2518°W)
Time: 00:47:04
(UTC+01:00)

OTV 5 (USA 277) - Visible Passes

Search period start: 20 June 2018 00:00
Search period end: 30 June 2018 00:00
Orbit: 313 x 320 km, 54.5° (Epoch: 18 June)

Date Brightness Start Highest point End Pass type
(mag) Time Alt. Az. Time Alt. Az. Time Alt. Az.
20 Jun ? 01:16:53 10° W 01:19:33 54° S 01:22:13 10° ESE visible
20 Jun ? 02:51:25 10° W 02:53:29 19° SSW 02:55:33 10° SSE visible
20 Jun ? 23:57:04 10° W 23:59:46 66° S 00:02:28 10° E visible
21 Jun ? 01:31:20 10° W 01:33:54 38° SSW 01:36:28 10° SE visible
21 Jun ? 03:06:41 10° WSW 03:07:40 11° SW 03:08:21 11° SSW visible
22 Jun ? 00:11:30 10° W 00:14:11 61° S 00:16:52 10° ESE visible
22 Jun ? 01:45:54 10° W 01:48:12 25° SSW 01:49:36 17° SSE visible
23 Jun ? 00:25:57 10° W 00:28:34 46° SSW 00:31:12 10° ESE visible
23 Jun ? 02:00:44 10° WSW 02:02:20 15° SW 02:02:20 15° SW visible
23 Jun ? 23:06:07 10° W 23:08:48 65° S 23:11:30 10° E visible
24 Jun ? 00:40:26 10° W 00:42:54 31° SSW 00:44:33 17° SSE visible
24 Jun ? 23:20:33 10° W 23:23:13 54° SSW 23:25:53 10° ESE visible
25 Jun ? 00:55:06 10° W 00:57:10 20° SSW 00:57:46 18° SSW visible
25 Jun ? 23:35:01 10° W 23:37:35 39° SSW 23:40:09 10° SE visible
26 Jun ? 01:10:20 10° WSW 01:11:06 11° SW 01:11:06 11° SW visible
26 Jun ? 23:49:34 10° W 23:51:53 25° SSW 23:53:40 14° SSE visible
28 Jun ? 00:04:24 10° WSW 00:06:07 15° SW 00:07:07 13° S visible
